WEINA 2 (47303 NORAD) Tracking and Keplerian Element Data

This shows tracking and keplerian element data for the satellite.

Feedback or suggestion? Click here.




ElementValue
Catalog47303
NameWEINA 2
Epoch Orbit1539
Epoch Day102.14730552
Epoch Year2021
RAAN351.6971
Inclination98.2626
Eccentricity0.0001278
Argument of Perigee88.2287
Mean Anonmoly271.9069
Mean Motion14.59158198
Decay Rate1.82E-06
L11 47303U 20103B 21102.14730552 .00000182 00000-0 48527-4 0 9997
L22 47303 98.2626 351.6971 0001278 88.2287 271.9069 14.59158198 15390

Live tracking and technical data element details for WEINA 2 (NORAD 47303). WEINA 2 can be tracked NOW for your location showing map with azimuth and elevation plus other details from your city location.

Track the satellite on the map from your city or location and see movement details for azimuth, elevation, latitude, longitude, range, height, and movement on the map or in text.







IsCatalogInMostPopularTable: catalog: 47303, numindb: 32
Update: records affected: 1



GetName: 47303 WEINA 2

Hit Count: updated at: Tue, 13 Apr 2021 04:00:06 GMT